Location: doobydoo
(53.3403°N, 2.6908°W)
Time: 12:21:45
(UTC+00:00)

ISS - Pass Details

Date: 04 December 2021
Orbit: 413 x 422 km, 51.6° (Epoch: 28 January)

Event Time Altitude Azimuth Distance (km) Brightness Sun altitude
Rises 16:44:20 0° 274° (W) 2,390 1.2 -7.1°
Reaches altitude 10° 16:46:27 10° 270° (W) 1,521 0.2 -7.4°
Maximum altitude 16:49:49 57° 192° (SSW) 507 -3.1 -7.8°
Drops below altitude 10° 16:53:09 10° 112° (ESE) 1,512 -1.3 -8.2°
Enters shadow 16:54:28 - 110° (ESE) 2,046 -0.7 -8.4°
